QPF
0.10 0.07 0.04 0.04 0.03 0.02 0.03 0.03 0.01 0.01 0.01 0.00 0.00 0.00 0.00 0.01 0.01 0.01 0.01 0.00 0.01 0.01 0.01 0.01 0.01 0.01 0.01 0.01 0.01 0.01 0.01 0.02 0.02 0.02 0.03 0.04 0.04 0.04 0.03 0.03 0.03 0.01 0.01
0.11 0.07 0.05 0.05 0.03 0.01 0.02 0.02 0.01 0.00 0.00 0.00 0.00 0.00 0.00 0.00 0.00 0.01 0.01 0.00 0.00 0.00 0.00 0.01 0.01 0.01 0.01 0.00 0.00 0.01 0.01 0.02 0.02 0.02 0.03 0.03 0.02 0.02 0.02 0.02 0.02 0.01 0.01
0.11 0.11 0.09 0.07 0.05 0.02 0.01 0.01 0.01 0.00 0.00 0.00 0.00 0.00 0.00 0.00 0.00 0.01 0.01 0.00 0.00 0.00 0.00 0.00 0.00 0.00 0.01 0.01 0.00 0.00 0.01 0.01 0.01 0.01 0.02 0.02 0.01 0.01 0.01 0.01 0.01 0.01 0.01
0.13 0.13 0.13 0.10 0.07 0.04 0.03 0.02 0.02 0.01 0.00 0.00 0.00 0.00 0.00 0.00 0.00 0.00 0.01 0.01 0.00 0.00 0.00 0.00 0.00 0.00 0.00 0.00 0.00 0.00 0.01 0.01 0.01 0.01 0.01 0.01 0.01 0.01 0.00 0.01 0.01 0.01 0.01
0.18 0.15 0.14 0.12 0.10 0.09 0.07 0.04 0.04 0.04 0.02 0.01 0.00 0.00 0.00 0.00 0.00 0.00 0.01 0.00 0.01 0.00 0.01 0.00 0.00 0.00 0.00 0.00 0.00 0.00 0.00 0.01 0.01 0.01 0.02 0.01 0.01 0.00 0.00 0.00 0.00 0.00 0.01
0.21 0.18 0.14 0.12 0.15 0.15 0.12 0.10 0.08 0.06 0.04 0.03 0.02 0.03 0.02 0.02 0.02 0.01 0.01 0.01 0.01 0.01 0.02 0.02 0.00 0.00 0.00 0.00 0.00 0.00 0.00 0.00 0.01 0.01 0.01 0.01 0.01 0.00 0.00 0.00 0.00 0.00 0.01
0.14 0.16 0.15 0.15 0.18 0.17 0.15 0.12 0.13 0.13 0.07 0.04 0.06 0.07 0.06 0.02 0.03 0.02 0.02 0.01 0.01 0.01 0.02 0.02 0.02 0.01 0.00 0.00 0.00 0.00 0.00 0.00 0.00 0.00 0.00 0.01 0.01 0.00 0.00 0.00 0.00 0.00 0.01
0.10 0.11 0.12 0.14 0.17 0.18 0.18 0.17 0.19 0.18 0.12 0.08 0.11 0.17 0.16 0.11 0.05 0.04 0.04 0.03 0.02 0.02 0.02 0.02 0.02 0.01 0.01 0.01 0.01 0.00 0.00 0.00 0.00 0.00 0.00 0.01 0.01 0.00 0.00 0.00 0.00 0.00 0.00
0.08 0.11 0.12 0.13 0.15 0.17 0.18 0.20 0.19 0.21 0.18 0.13 0.11 0.16 0.18 0.19 0.16 0.07 0.05 0.05 0.03 0.03 0.02 0.02 0.02 0.02 0.02 0.02 0.01 0.01 0.01 0.01 0.01 0.01 0.01 0.00 0.00 0.00 0.00 0.00 0.00 0.00 0.00
0.11 0.14 0.17 0.15 0.16 0.18 0.18 0.18 0.17 0.19 0.22 0.18 0.14 0.12 0.13 0.17 0.21 0.17 0.11 0.06 0.04 0.04 0.04 0.04 0.03 0.02 0.03 0.02 0.03 0.03 0.01 0.00 0.01 0.01 0.01 0.01 0.01 0.00 0.00 0.00 0.00 0.00 0.00
0.11 0.13 0.16 0.17 0.17 0.18 0.17 0.19 0.20 0.20 0.22 0.23 0.20 0.16 0.14 0.15 0.16 0.20 0.21 0.15 0.09 0.05 0.04 0.05 0.05 0.05 0.05 0.03 0.06 0.07 0.05 0.01 0.01 0.01 0.01 0.01 0.01 0.01 0.01 0.01 0.00 0.00 0.00
0.10 0.10 0.13 0.15 0.17 0.20 0.20 0.19 0.19 0.19 0.18 0.20 0.22 0.20 0.19 0.17 0.15 0.17 0.17 0.15 0.15 0.09 0.06 0.05 0.05 0.05 0.06 0.07 0.09 0.11 0.07 0.03 0.01 0.01 0.01 0.01 0.01 0.01 0.01 0.01 0.01 0.01 0.00
0.13 0.11 0.13 0.14 0.17 0.18 0.19 0.19 0.18 0.17 0.16 0.17 0.19 0.20 0.19 0.16 0.14 0.15 0.15 0.14 0.12 0.08 0.06 0.05 0.04 0.04 0.05 0.06 0.10 0.12 0.07 0.03 0.01 0.01 0.01 0.01 0.02 0.02 0.02 0.02 0.02 0.02 0.02
0.16 0.15 0.17 0.18 0.18 0.18 0.17 0.18 0.17 0.17 0.16 0.16 0.16 0.17 0.17 0.17 0.15 0.13 0.13 0.14 0.13 0.12 0.10 0.09 0.08 0.05 0.05 0.06 0.09 0.10 0.06 0.04 0.02 0.01 0.01 0.01 0.01 0.02 0.02 0.03 0.03 0.03 0.03
0.20 0.16 0.16 0.18 0.19 0.18 0.17 0.18 0.19 0.19 0.18 0.17 0.16 0.15 0.15 0.15 0.13 0.12 0.11 0.12 0.13 0.13 0.13 0.11 0.10 0.07 0.06 0.06 0.07 0.05 0.04 0.05 0.04 0.02 0.01 0.01 0.01 0.02 0.02 0.02 0.02 0.02 0.03
0.17 0.15 0.13 0.14 0.18 0.19 0.19 0.20 0.18 0.18 0.17 0.16 0.16 0.17 0.16 0.15 0.15 0.15 0.13 0.12 0.11 0.10 0.10 0.09 0.07 0.05 0.04 0.04 0.04 0.03 0.03 0.06 0.04 0.03 0.02 0.02 0.03 0.03 0.03 0.03 0.02 0.02 0.01
0.13 0.14 0.13 0.13 0.13 0.15 0.17 0.18 0.17 0.16 0.18 0.17 0.16 0.14 0.14 0.15 0.15 0.16 0.15 0.13 0.11 0.10 0.09 0.07 0.06 0.04 0.04 0.04 0.04 0.04 0.04 0.05 0.04 0.03 0.03 0.03 0.04 0.05 0.05 0.05 0.04 0.03 0.02
0.12 0.11 0.11 0.13 0.12 0.11 0.10 0.11 0.12 0.13 0.15 0.15 0.14 0.12 0.10 0.09 0.09 0.11 0.11 0.10 0.09 0.09 0.08 0.08 0.08 0.07 0.06 0.05 0.06 0.07 0.08 0.08 0.09 0.06 0.04 0.03 0.03 0.04 0.04 0.04 0.03 0.03 0.02
0.10 0.11 0.12 0.15 0.14 0.11 0.09 0.09 0.08 0.09 0.10 0.12 0.12 0.10 0.09 0.09 0.08 0.08 0.07 0.08 0.09 0.09 0.09 0.10 0.11 0.11 0.09 0.07 0.08 0.09 0.11 0.14 0.10 0.06 0.04 0.03 0.03 0.02 0.02 0.01 0.01 0.01 0.01
0.06 0.08 0.09 0.11 0.12 0.10 0.09 0.10 0.07 0.06 0.06 0.07 0.09 0.09 0.10 0.10 0.09 0.08 0.08 0.10 0.11 0.10 0.09 0.10 0.11 0.11 0.10 0.09 0.10 0.11 0.14 0.15 0.12 0.07 0.05 0.04 0.03 0.02 0.01 0.01 0.01 0.01 0.00
0.05 0.07 0.06 0.08 0.07 0.06 0.06 0.08 0.08 0.05 0.04 0.06 0.07 0.08 0.08 0.08 0.06 0.06 0.07 0.10 0.10 0.11 0.11 0.12 0.12 0.11 0.09 0.08 0.09 0.11 0.11 0.13 0.14 0.13 0.10 0.07 0.06 0.05 0.04 0.02 0.01 0.01 0.01
0.04 0.04 0.04 0.06 0.07 0.05 0.05 0.07 0.08 0.06 0.06 0.06 0.07 0.08 0.08 0.06 0.04 0.03 0.04 0.06 0.08 0.10 0.11 0.10 0.10 0.09 0.08 0.07 0.09 0.11 0.12 0.12 0.10 0.10 0.09 0.07 0.06 0.05 0.03 0.02 0.01 0.01 0.01
0.03 0.04 0.05 0.07 0.07 0.05 0.05 0.06 0.07 0.07 0.07 0.08 0.08 0.11 0.10 0.07 0.06 0.05 0.04 0.04 0.05 0.08 0.10 0.10 0.10 0.08 0.07 0.08 0.09 0.09 0.10 0.11 0.07 0.05 0.05 0.05 0.03 0.02 0.01 0.01 0.01 0.00 0.00
0.02 0.03 0.04 0.05 0.07 0.05 0.04 0.04 0.06 0.06 0.05 0.07 0.09 0.11 0.11 0.11 0.09 0.10 0.09 0.08 0.07 0.05 0.05 0.06 0.05 0.05 0.04 0.05 0.06 0.07 0.07 0.06 0.04 0.04 0.04 0.04 0.02 0.01 0.01 0.01 0.00 0.00 0.00
0.01 0.01 0.02 0.03 0.04 0.03 0.03 0.03 0.05 0.05 0.05 0.06 0.06 0.08 0.10 0.10 0.08 0.10 0.13 0.11 0.07 0.04 0.04 0.05 0.04 0.03 0.04 0.04 0.04 0.04 0.05 0.05 0.04 0.04 0.03 0.03 0.03 0.02 0.02 0.01 0.00 0.00 0.00
0.01 0.02 0.02 0.03 0.03 0.03 0.02 0.03 0.04 0.04 0.05 0.06 0.06 0.07 0.09 0.08 0.06 0.10 0.14 0.12 0.08 0.05 0.03 0.03 0.02 0.02 0.02 0.02 0.03 0.05 0.07 0.08 0.06 0.05 0.03 0.03 0.04 0.03 0.02 0.02 0.01 0.01 0.01
MSLP
1014.06 1014.12 1014.17 1014.23 1014.32 1014.45 1014.60 1014.74 1014.86 1014.92 1014.93 1014.90 1014.86 1014.86 1014.94 1015.12 1015.41 1015.79 1016.21 1016.63 1017.01 1017.32 1017.54 1017.70 1017.81 1017.91 1018.01 1018.15 1018.31 1018.48 1018.64 1018.79 1018.93 1019.05 1019.18 1019.34 1019.53 1019.75 1019.98 1020.19 1020.37 1020.48 1020.52
1013.65 1013.69 1013.74 1013.81 1013.91 1014.04 1014.18 1014.32 1014.41 1014.46 1014.46 1014.43 1014.41 1014.45 1014.57 1014.80 1015.13 1015.55 1016.01 1016.46 1016.87 1017.22 1017.49 1017.71 1017.88 1018.04 1018.20 1018.37 1018.54 1018.70 1018.84 1018.96 1019.06 1019.16 1019.28 1019.43 1019.62 1019.84 1020.08 1020.30 1020.47 1020.58 1020.62
1013.28 1013.32 1013.37 1013.46 1013.58 1013.72 1013.87 1014.00 1014.09 1014.13 1014.12 1014.10 1014.11 1014.17 1014.32 1014.57 1014.92 1015.34 1015.79 1016.24 1016.66 1017.02 1017.33 1017.59 1017.83 1018.06 1018.28 1018.49 1018.69 1018.86 1018.99 1019.09 1019.17 1019.24 1019.34 1019.48 1019.66 1019.89 1020.13 1020.35 1020.53 1020.64 1020.68
1012.93 1012.97 1013.05 1013.17 1013.32 1013.49 1013.66 1013.80 1013.89 1013.93 1013.94 1013.94 1013.96 1014.04 1014.20 1014.45 1014.78 1015.17 1015.58 1015.99 1016.37 1016.71 1017.03 1017.32 1017.61 1017.90 1018.19 1018.46 1018.71 1018.91 1019.05 1019.15 1019.22 1019.28 1019.36 1019.49 1019.67 1019.89 1020.13 1020.35 1020.53 1020.64 1020.69
1012.58 1012.63 1012.74 1012.90 1013.10 1013.31 1013.51 1013.68 1013.79 1013.86 1013.89 1013.92 1013.97 1014.07 1014.23 1014.46 1014.75 1015.07 1015.40 1015.72 1016.03 1016.32 1016.60 1016.90 1017.22 1017.56 1017.91 1018.26 1018.57 1018.82 1019.00 1019.13 1019.21 1019.28 1019.36 1019.49 1019.66 1019.87 1020.10 1020.31 1020.48 1020.60 1020.65
1012.21 1012.28 1012.42 1012.62 1012.86 1013.12 1013.37 1013.59 1013.75 1013.86 1013.94 1014.02 1014.11 1014.23 1014.40 1014.60 1014.83 1015.07 1015.29 1015.50 1015.69 1015.89 1016.11 1016.38 1016.71 1017.08 1017.49 1017.90 1018.28 1018.60 1018.85 1019.02 1019.14 1019.23 1019.34 1019.47 1019.64 1019.84 1020.05 1020.26 1020.42 1020.52 1020.58
1011.84 1011.90 1012.05 1012.28 1012.57 1012.88 1013.19 1013.46 1013.69 1013.87 1014.02 1014.17 1014.31 1014.48 1014.66 1014.84 1015.02 1015.16 1015.27 1015.35 1015.42 1015.51 1015.64 1015.85 1016.16 1016.54 1016.98 1017.44 1017.89 1018.28 1018.60 1018.84 1019.02 1019.16 1019.30 1019.45 1019.62 1019.82 1020.02 1020.21 1020.35 1020.46 1020.51
1011.47 1011.49 1011.64 1011.89 1012.21 1012.56 1012.92 1013.26 1013.56 1013.83 1014.07 1014.30 1014.53 1014.75 1014.97 1015.15 1015.28 1015.35 1015.36 1015.32 1015.27 1015.24 1015.27 1015.41 1015.66 1016.03 1016.47 1016.97 1017.46 1017.91 1018.30 1018.62 1018.86 1019.07 1019.25 1019.43 1019.62 1019.82 1020.01 1020.19 1020.32 1020.42 1020.47
1011.10 1011.08 1011.20 1011.44 1011.76 1012.15 1012.55 1012.94 1013.32 1013.67 1014.01 1014.35 1014.67 1014.98 1015.25 1015.46 1015.59 1015.62 1015.56 1015.43 1015.28 1015.14 1015.08 1015.13 1015.32 1015.63 1016.06 1016.55 1017.06 1017.55 1017.99 1018.36 1018.67 1018.94 1019.17 1019.40 1019.62 1019.83 1020.03 1020.20 1020.33 1020.42 1020.48
1010.77 1010.67 1010.74 1010.95 1011.26 1011.65 1012.07 1012.51 1012.94 1013.38 1013.81 1014.25 1014.68 1015.08 1015.43 1015.70 1015.86 1015.90 1015.82 1015.65 1015.43 1015.23 1015.09 1015.06 1015.17 1015.42 1015.79 1016.24 1016.73 1017.22 1017.68 1018.09 1018.45 1018.78 1019.07 1019.34 1019.59 1019.83 1020.04 1020.22 1020.36 1020.46 1020.52
1010.48 1010.31 1010.31 1010.46 1010.74 1011.10 1011.52 1011.97 1012.44 1012.94 1013.45 1013.97 1014.50 1015.00 1015.44 1015.80 1016.03 1016.11 1016.07 1015.91 1015.69 1015.46 1015.28 1015.19 1015.23 1015.40 1015.69 1016.07 1016.50 1016.95 1017.40 1017.82 1018.20 1018.56 1018.90 1019.22 1019.52 1019.79 1020.03 1020.22 1020.38 1020.49 1020.57
1010.26 1010.01 1009.94 1010.03 1010.24 1010.55 1010.94 1011.38 1011.85 1012.37 1012.93 1013.52 1014.12 1014.71 1015.25 1015.69 1016.02 1016.20 1016.23 1016.14 1015.97 1015.77 1015.59 1015.47 1015.45 1015.54 1015.74 1016.03 1016.37 1016.75 1017.14 1017.54 1017.92 1018.30 1018.67 1019.03 1019.37 1019.68 1019.95 1020.17 1020.35 1020.48 1020.59
1010.12 1009.81 1009.67 1009.68 1009.83 1010.07 1010.39 1010.78 1011.23 1011.74 1012.30 1012.92 1013.56 1014.21 1014.83 1015.37 1015.80 1016.09 1016.24 1016.26 1016.19 1016.06 1015.91 1015.80 1015.75 1015.79 1015.90 1016.08 1016.32 1016.60 1016.92 1017.26 1017.63 1018.00 1018.39 1018.77 1019.15 1019.49 1019.79 1020.05 1020.25 1020.41 1020.54
1010.10 1009.75 1009.55 1009.49 1009.56 1009.72 1009.96 1010.27 1010.65 1011.11 1011.64 1012.24 1012.89 1013.56 1014.23 1014.85 1015.37 1015.78 1016.06 1016.22 1016.27 1016.24 1016.18 1016.11 1016.06 1016.05 1016.09 1016.18 1016.32 1016.50 1016.74 1017.01 1017.33 1017.69 1018.08 1018.48 1018.88 1019.26 1019.59 1019.87 1020.09 1020.27 1020.41
1010.24 1009.86 1009.62 1009.50 1009.48 1009.55 1009.70 1009.91 1010.20 1010.57 1011.03 1011.57 1012.19 1012.85 1013.52 1014.18 1014.78 1015.29 1015.69 1015.98 1016.17 1016.27 1016.31 1016.31 1016.29 1016.27 1016.27 1016.29 1016.35 1016.45 1016.60 1016.81 1017.09 1017.43 1017.81 1018.22 1018.63 1019.03 1019.38 1019.67 1019.91 1020.09 1020.23
1010.56 1010.18 1009.91 1009.73 1009.64 1009.62 1009.67 1009.78 1009.96 1010.23 1010.58 1011.03 1011.56 1012.17 1012.81 1013.47 1014.10 1014.67 1015.17 1015.58 1015.89 1016.12 1016.27 1016.36 1016.40 1016.40 1016.39 1016.38 1016.38 1016.43 1016.53 1016.69 1016.94 1017.26 1017.63 1018.05 1018.47 1018.87 1019.23 1019.53 1019.75 1019.93 1020.05
1011.10 1010.72 1010.43 1010.21 1010.06 1009.95 1009.91 1009.91 1009.98 1010.13 1010.37 1010.71 1011.13 1011.65 1012.22 1012.83 1013.44 1014.04 1014.59 1015.07 1015.48 1015.81 1016.07 1016.24 1016.35 1016.41 1016.43 1016.42 1016.42 1016.45 1016.53 1016.68 1016.92 1017.23 1017.61 1018.03 1018.46 1018.86 1019.21 1019.50 1019.71 1019.86 1019.96
1011.81 1011.45 1011.15 1010.91 1010.70 1010.53 1010.40 1010.32 1010.29 1010.32 1010.45 1010.66 1010.97 1011.36 1011.83 1012.36 1012.91 1013.48 1014.03 1014.54 1015.00 1015.40 1015.74 1015.99 1016.18 1016.30 1016.37 1016.41 1016.44 1016.50 1016.60 1016.78 1017.03 1017.37 1017.76 1018.19 1018.62 1019.02 1019.37 1019.64 1019.83 1019.94 1020.00
1012.66 1012.32 1012.03 1011.76 1011.52 1011.30 1011.11 1010.95 1010.84 1010.78 1010.80 1010.90 1011.09 1011.36 1011.71 1012.12 1012.58 1013.07 1013.58 1014.07 1014.54 1014.96 1015.34 1015.66 1015.91 1016.10 1016.24 1016.35 1016.45 1016.57 1016.73 1016.96 1017.26 1017.63 1018.05 1018.51 1018.95 1019.35 1019.69 1019.94 1020.10 1020.19 1020.21
1013.56 1013.25 1012.96 1012.69 1012.43 1012.19 1011.96 1011.75 1011.58 1011.46 1011.39 1011.40 1011.48 1011.63 1011.86 1012.15 1012.49 1012.88 1013.29 1013.72 1014.15 1014.56 1014.95 1015.29 1015.59 1015.84 1016.06 1016.25 1016.43 1016.63 1016.88 1017.18 1017.54 1017.97 1018.44 1018.92 1019.38 1019.79 1020.13 1020.37 1020.52 1020.57 1020.57
1014.42 1014.13 1013.86 1013.59 1013.34 1013.09 1012.84 1012.62 1012.42 1012.25 1012.14 1012.07 1012.07 1012.12 1012.24 1012.41 1012.63 1012.90 1013.21 1013.54 1013.89 1014.26 1014.61 1014.96 1015.28 1015.57 1015.85 1016.11 1016.38 1016.67 1017.00 1017.38 1017.82 1018.31 1018.82 1019.34 1019.83 1020.27 1020.61 1020.85 1020.99 1021.04 1021.01
1015.16 1014.90 1014.65 1014.40 1014.16 1013.92 1013.69 1013.46 1013.26 1013.08 1012.94 1012.83 1012.77 1012.75 1012.78 1012.85 1012.96 1013.11 1013.31 1013.54 1013.80 1014.09 1014.39 1014.71 1015.02 1015.34 1015.65 1015.97 1016.30 1016.67 1017.07 1017.52 1018.03 1018.57 1019.13 1019.69 1020.22 1020.67 1021.04 1021.30 1021.45 1021.50 1021.47
1015.74 1015.51 1015.29 1015.07 1014.85 1014.64 1014.43 1014.22 1014.03 1013.86 1013.71 1013.59 1013.50 1013.43 1013.40 1013.39 1013.42 1013.47 1013.56 1013.70 1013.87 1014.07 1014.31 1014.58 1014.87 1015.18 1015.51 1015.85 1016.23 1016.64 1017.09 1017.59 1018.14 1018.72 1019.31 1019.90 1020.45 1020.94 1021.33 1021.62 1021.80 1021.88 1021.87
1016.15 1015.96 1015.77 1015.59 1015.41 1015.22 1015.04 1014.86 1014.69 1014.54 1014.40 1014.28 1014.18 1014.09 1014.02 1013.97 1013.93 1013.92 1013.94 1013.99 1014.08 1014.22 1014.39 1014.61 1014.86 1015.14 1015.46 1015.80 1016.19 1016.61 1017.07 1017.59 1018.15 1018.74 1019.35 1019.95 1020.52 1021.03 1021.45 1021.78 1022.00 1022.12 1022.16
1016.45 1016.30 1016.16 1016.01 1015.86 1015.71 1015.55 1015.40 1015.25 1015.11 1014.99 1014.87 1014.77 1014.68 1014.60 1014.52 1014.46 1014.41 1014.39 1014.39 1014.43 1014.51 1014.63 1014.80 1015.01 1015.26 1015.55 1015.87 1016.23 1016.63 1017.07 1017.57 1018.10 1018.67 1019.27 1019.87 1020.44 1020.96 1021.42 1021.78 1022.05 1022.23 1022.31
1016.72 1016.61 1016.51 1016.39 1016.27 1016.15 1016.01 1015.87 1015.73 1015.60 1015.48 1015.37 1015.27 1015.19 1015.10 1015.03 1014.96 1014.90 1014.86 1014.84 1014.86 1014.92 1015.02 1015.16 1015.33 1015.55 1015.80 1016.08 1016.40 1016.75 1017.15 1017.59 1018.07 1018.60 1019.15 1019.72 1020.28 1020.81 1021.28 1021.68 1021.99 1022.22 1022.37
Thickness
5771 5772 5773 5772 5772 5771 5769 5769 5769 5771 5772 5773 5773 5773 5772 5771 5769 5765 5761 5759 5757 5756 5755 5754 5753 5752 5752 5751 5751 5750 5749 5748 5747 5747 5746 5746 5746 5746 5745 5745 5745 5745 5745
5769 5768 5769 5769 5770 5771 5770 5768 5769 5770 5771 5772 5771 5771 5770 5769 5768 5764 5760 5758 5756 5755 5754 5753 5752 5751 5751 5750 5750 5749 5748 5747 5746 5745 5745 5744 5744 5743 5743 5743 5743 5742 5743
5765 5765 5765 5765 5766 5767 5768 5767 5768 5768 5768 5768 5767 5768 5768 5767 5766 5764 5760 5757 5756 5754 5753 5752 5751 5750 5750 5749 5748 5747 5747 5746 5745 5744 5743 5742 5742 5741 5741 5741 5740 5740 5740
5760 5761 5760 5760 5762 5762 5763 5763 5763 5761 5762 5762 5762 5763 5764 5764 5764 5763 5761 5759 5756 5754 5752 5751 5750 5749 5749 5748 5747 5746 5745 5744 5743 5742 5742 5741 5740 5739 5739 5739 5738 5738 5738
5753 5754 5755 5756 5757 5757 5757 5757 5757 5755 5754 5755 5757 5759 5760 5761 5761 5761 5761 5760 5758 5755 5752 5750 5749 5748 5747 5746 5746 5745 5744 5743 5742 5741 5740 5739 5738 5737 5737 5736 5736 5735 5735
5748 5748 5750 5751 5751 5751 5750 5750 5750 5750 5750 5749 5751 5753 5755 5757 5757 5758 5758 5759 5758 5756 5753 5750 5748 5747 5746 5745 5744 5743 5742 5741 5740 5739 5738 5737 5736 5735 5734 5734 5733 5732 5732
5742 5743 5744 5745 5745 5744 5744 5744 5744 5743 5743 5745 5742 5741 5745 5751 5753 5753 5754 5755 5756 5756 5753 5750 5748 5746 5745 5744 5743 5741 5740 5739 5738 5737 5736 5735 5734 5732 5731 5731 5730 5729 5729
5735 5738 5738 5739 5739 5739 5739 5739 5738 5736 5736 5738 5734 5729 5727 5733 5742 5749 5749 5750 5751 5752 5752 5751 5750 5747 5745 5743 5741 5740 5738 5737 5736 5735 5733 5732 5731 5730 5729 5728 5727 5726 5725
5728 5730 5733 5734 5734 5734 5734 5733 5733 5731 5728 5730 5731 5726 5719 5717 5726 5737 5742 5744 5745 5747 5748 5750 5749 5748 5746 5743 5740 5738 5736 5734 5733 5732 5731 5729 5728 5726 5726 5725 5723 5722 5722
5720 5723 5725 5727 5728 5728 5729 5729 5729 5728 5726 5722 5724 5726 5725 5723 5718 5720 5730 5737 5740 5741 5743 5745 5746 5746 5745 5742 5739 5736 5734 5732 5730 5728 5727 5726 5724 5723 5722 5720 5719 5718 5717
5712 5715 5718 5719 5721 5722 5723 5724 5724 5724 5723 5719 5718 5719 5719 5720 5720 5715 5715 5723 5729 5734 5737 5739 5740 5741 5740 5740 5737 5734 5731 5729 5727 5725 5724 5722 5721 5719 5718 5716 5715 5714 5713
5703 5706 5710 5712 5714 5715 5716 5718 5719 5719 5718 5717 5716 5715 5713 5712 5712 5711 5710 5713 5716 5723 5729 5732 5733 5734 5734 5733 5733 5730 5727 5725 5722 5721 5719 5718 5717 5715 5714 5712 5711 5709 5708
5692 5697 5701 5705 5707 5709 5711 5711 5712 5713 5714 5713 5712 5711 5710 5710 5710 5709 5706 5706 5709 5714 5720 5724 5727 5728 5728 5727 5726 5724 5721 5720 5718 5716 5714 5713 5712 5710 5709 5707 5706 5705 5704
5684 5690 5694 5697 5700 5703 5705 5706 5706 5707 5709 5708 5708 5707 5706 5706 5707 5705 5704 5701 5699 5702 5708 5712 5717 5720 5721 5720 5719 5717 5716 5715 5713 5711 5709 5707 5706 5704 5703 5701 5700 5699 5698
5679 5682 5687 5691 5694 5696 5699 5700 5700 5702 5703 5704 5703 5703 5703 5703 5703 5702 5702 5701 5696 5693 5696 5702 5706 5711 5712 5712 5711 5711 5710 5709 5708 5705 5703 5701 5700 5698 5697 5695 5694 5692 5691
5672 5676 5679 5683 5687 5690 5692 5693 5694 5696 5697 5698 5698 5698 5698 5698 5698 5698 5697 5697 5696 5693 5691 5695 5698 5702 5704 5705 5704 5704 5704 5703 5701 5699 5697 5695 5694 5692 5690 5689 5687 5685 5684
5666 5669 5672 5676 5679 5681 5684 5686 5687 5689 5690 5691 5692 5692 5693 5694 5692 5692 5692 5692 5691 5690 5686 5688 5692 5694 5695 5696 5696 5696 5696 5695 5693 5691 5689 5688 5687 5685 5683 5682 5680 5679 5678
5660 5663 5666 5668 5671 5673 5676 5678 5679 5681 5682 5683 5684 5686 5687 5687 5686 5686 5685 5685 5685 5685 5683 5681 5683 5685 5686 5688 5688 5688 5688 5687 5685 5683 5681 5680 5679 5677 5676 5674 5673 5671 5670
5655 5657 5660 5661 5663 5665 5667 5668 5671 5673 5675 5677 5678 5678 5679 5679 5678 5678 5679 5679 5679 5680 5679 5677 5676 5677 5678 5680 5679 5680 5680 5679 5677 5675 5673 5671 5670 5668 5666 5665 5664 5663 5663
5649 5651 5652 5654 5655 5656 5658 5660 5663 5666 5668 5669 5671 5671 5671 5672 5672 5672 5673 5673 5674 5673 5672 5671 5669 5670 5670 5672 5671 5670 5669 5670 5669 5667 5665 5663 5661 5659 5657 5656 5656 5656 5655
5644 5645 5646 5647 5647 5649 5650 5652 5654 5658 5659 5661 5662 5664 5665 5666 5667 5668 5668 5667 5667 5666 5664 5663 5662 5662 5662 5662 5662 5664 5662 5661 5660 5659 5657 5654 5652 5650 5649 5648 5647 5648 5648
5639 5640 5640 5640 5640 5641 5643 5645 5648 5650 5652 5653 5654 5655 5657 5659 5659 5660 5661 5662 5662 5661 5658 5658 5657 5656 5656 5657 5658 5658 5655 5653 5649 5650 5649 5645 5644 5641 5639 5638 5639 5639 5640
5634 5634 5634 5634 5634 5634 5637 5639 5641 5643 5645 5646 5647 5648 5650 5651 5652 5652 5653 5654 5655 5656 5657 5656 5653 5651 5652 5653 5653 5652 5650 5648 5645 5644 5642 5636 5635 5632 5630 5630 5630 5631 5631
5630 5630 5629 5629 5629 5629 5631 5633 5635 5637 5638 5639 5640 5641 5643 5643 5645 5646 5646 5645 5646 5647 5650 5651 5650 5649 5650 5651 5651 5650 5648 5644 5641 5639 5639 5631 5628 5625 5624 5623 5623 5623 5623
5628 5627 5626 5625 5624 5623 5625 5627 5630 5631 5632 5632 5633 5634 5636 5637 5639 5640 5641 5639 5638 5639 5642 5644 5644 5644 5646 5647 5647 5645 5642 5638 5634 5633 5634 5629 5624 5621 5619 5616 5615 5615 5615
5627 5626 5624 5623 5621 5619 5620 5622 5625 5626 5626 5626 5627 5628 5629 5631 5634 5636 5636 5635 5633 5633 5636 5637 5638 5639 5640 5641 5641 5641 5639 5635 5632 5628 5630 5627 5623 5620 5615 5612 5610 5610 5609